Lancaster, OH

6:47 AM EDT on April 21, 2018 (GMT -0400)
Fairfield County

Weather History for KLHQ - November, 2010

Change the Weather History Date:

Thursday, November 25, 2010

  Actual Average Record
Temperature  
Mean Temperature 47 °F -  
Max Temperature 57 °F 44 °F 68 °F (2006)
Min Temperature 37 °F 28 °F 0 °F (1938)
Degree Days  
Heating Degree Days 18    
Moisture  
Dew Point 49 °F    
Average Humidity 95    
Maximum Humidity 100    
Minimum Humidity 87    
Precipitation  
Precipitation 1.93 in - - ()
Sea Level Pressure  
Sea Level Pressure 29.75 in    
Wind  
Wind Speed 8 mph (SSE)    
Max Wind Speed 16 mph    
Max Gust Speed 25 mph    
Visibility 5 miles    
Events Rain    
Averages and records for this station are not official NWS values.
T = Trace of Precipitation, MM = Missing Value Source: NWS Daily Summary

Daily Weather History Graph

Daily Weather History Graph

Search for Another Location

Airport or City:

Astronomy

Nov. 25, 2010 Rise Set
Actual Time 7:26 AM EST 5:08 PM EST
Civil Twilight 6:56 AM EST 5:38 PM EST
Nautical Twilight 6:23 AM EST 6:11 PM EST
Astronomical Twilight 5:51 AM EST 6:43 PM EST
Moon 9:04 PM EST (11/25) 10:55 AM EST (11/25)
Length of Visible Light 10h 41m
Length of Day
9h 42m
Waning Gibbous, 83% of the Moon is Illuminated
Nov 25
Waning Gibbous
Nov 28
Last Quarter
Dec 5
New
Dec 13
First Quarter
Dec 21
Full

Hourly Weather History & Observations

Time (EST) Temp. Windchill Dew Point Humidity Pressure Visibility Wind Dir Wind Speed Gust Speed Precip Events Conditions
12:09 AM 37.4 °F 30.3 °F 35.6 °F 93% 29.96 in 5.0 mi ESE 10.4 mph - 0.04 in Rain Light Rain
12:53 AM 37.9 °F 30.9 °F 37.0 °F 97% 29.96 in 6.0 mi ESE 10.4 mph - 0.06 in Rain Rain
1:47 AM 39.2 °F 34.2 °F 37.4 °F 93% 29.90 in 2.5 mi East 6.9 mph - 0.16 in Rain Heavy Rain
1:53 AM 39.0 °F 33.4 °F 37.0 °F 93% 29.91 in 2.5 mi East 8.1 mph - 0.19 in Rain Heavy Rain
2:00 AM 39.2 °F 32.5 °F 37.4 °F 93% 29.89 in 4.0 mi SE 10.4 mph - 0.01 in Rain Rain
2:40 AM 39.2 °F 32.5 °F 37.4 °F 93% 29.88 in 7.0 mi SE 10.4 mph - 0.01 in   Overcast
2:53 AM 39.0 °F 31.8 °F 37.9 °F 96% 29.89 in 10.0 mi ESE 11.5 mph - 0.01 in   Overcast
3:19 AM 39.2 °F 32.0 °F 37.4 °F 93% 29.85 in 10.0 mi SE 11.5 mph - N/A   Overcast
3:26 AM 39.2 °F 33.0 °F 37.4 °F 93% 29.85 in 10.0 mi SE 9.2 mph - N/A   Overcast
3:53 AM 39.9 °F 34.5 °F 37.9 °F 93% 29.87 in 10.0 mi SE 8.1 mph - N/A   Overcast
4:14 AM 39.2 °F 32.0 °F 37.4 °F 93% 29.84 in 10.0 mi SE 11.5 mph - N/A   Overcast
4:53 AM 39.9 °F 33.9 °F 39.0 °F 97% 29.86 in 10.0 mi SE 9.2 mph - N/A   Overcast
5:53 AM 42.1 °F 38.4 °F 39.9 °F 92% 29.85 in 10.0 mi ESE 5.8 mph - N/A   Overcast
6:53 AM 43.0 °F 36.8 °F 41.0 °F 93% 29.83 in 10.0 mi SE 11.5 mph - N/A   Overcast
7:53 AM 45.0 °F 40.1 °F 43.0 °F 93% 29.81 in 4.0 mi SE 9.2 mph - 0.02 in Rain Light Rain
8:09 AM 46.4 °F 42.4 °F 44.6 °F 93% 29.79 in 4.0 mi SE 8.1 mph - 0.01 in Rain Light Rain
8:45 AM 48.2 °F - 48.2 °F 100% 29.82 in 6.0 mi NW 13.8 mph 19.6 mph 0.02 in   Overcast
8:53 AM 50.0 °F - 48.0 °F 93% 29.85 in 3.0 mi NW 13.8 mph 23.0 mph 0.03 in Rain Rain
8:57 AM 48.2 °F - 48.2 °F 100% 29.84 in 2.5 mi WNW 10.4 mph 20.7 mph 0.01 in Rain Light Rain
9:07 AM 50.0 °F - 48.2 °F 94% 29.84 in 4.0 mi WNW 11.5 mph 19.6 mph 0.01 in Rain Light Rain
9:22 AM 50.0 °F - 48.2 °F 94% 29.83 in 2.5 mi SSW 6.9 mph - 0.03 in Rain Rain
9:25 AM 50.0 °F - 48.2 °F 94% 29.83 in 3.0 mi SW 4.6 mph - 0.04 in Rain Light Rain
9:53 AM 51.1 °F - 50.0 °F 96% 29.84 in 2.5 mi South 9.2 mph - 0.04 in Rain Light Rain
10:08 AM 51.8 °F - 50.0 °F 94% 29.82 in 3.0 mi SSE 9.2 mph - 0.01 in Rain Light Rain
10:22 AM 51.8 °F - 50.0 °F 94% 29.83 in 6.0 mi South 8.1 mph - 0.01 in   Overcast
10:53 AM 54.0 °F - 52.0 °F 93% 29.83 in 8.0 mi South 5.8 mph - 0.01 in   Overcast
11:29 AM 55.4 °F - 53.6 °F 94% 29.84 in 10.0 mi Variable 5.8 mph - N/A   Overcast
11:37 AM 55.4 °F - 53.6 °F 94% 29.84 in 8.0 mi WSW 6.9 mph - 0.00 in Rain Light Rain
11:53 AM 55.0 °F - 53.1 °F 93% 29.86 in 9.0 mi Calm Calm - 0.00 in Rain Light Rain
12:53 PM 57.0 °F - 55.0 °F 93% 29.80 in 10.0 mi South 6.9 mph - 0.02 in   Overcast
1:53 PM 57.0 °F - 54.0 °F 89% 29.75 in 10.0 mi SSE 9.2 mph - 0.00 in Rain Light Rain
2:53 PM 57.0 °F - 54.0 °F 89% 29.73 in 10.0 mi SSE 9.2 mph - 0.01 in Rain Light Rain
3:53 PM 57.0 °F - 54.0 °F 89% 29.73 in 8.0 mi SSE 6.9 mph - 0.01 in Rain Light Rain
4:39 PM 55.4 °F - 55.4 °F 100% 29.70 in 2.5 mi South 6.9 mph - 0.13 in Rain Rain
4:53 PM 55.9 °F - 55.0 °F 97% 29.70 in 3.0 mi South 6.9 mph - 0.17 in Rain Rain
5:14 PM 55.4 °F - 55.4 °F 100% 29.70 in 2.5 mi SSE 4.6 mph - 0.07 in Rain Heavy Rain
5:28 PM 55.4 °F - 55.4 °F 100% 29.69 in 3.0 mi SE 6.9 mph - 0.15 in Rain Heavy Rain
5:45 PM 55.4 °F - 55.4 °F 100% 29.69 in 2.5 mi Calm Calm - 0.22 in Rain Heavy Rain
5:51 PM 55.4 °F - 55.4 °F 100% 29.68 in 2.0 mi SE 3.5 mph - 0.24 in Rain Heavy Rain
5:53 PM 55.0 °F - 54.0 °F 96% 29.69 in 2.0 mi SE 3.5 mph - 0.25 in Rain Heavy Rain
5:55 PM 55.4 °F - 53.6 °F 94% 29.69 in 2.5 mi SSE 3.5 mph - 0.01 in Rain Heavy Rain
6:09 PM 55.4 °F - 55.4 °F 100% 29.67 in 3.0 mi ESE 5.8 mph - 0.04 in Rain Rain
6:28 PM 55.4 °F - 55.4 °F 100% 29.67 in 2.0 mi SSE 3.5 mph - 0.10 in Rain Heavy Rain
6:34 PM 55.4 °F - 55.4 °F 100% 29.67 in 1.5 mi Calm Calm - 0.15 in Rain Heavy Rain
6:50 PM 55.4 °F - 55.4 °F 100% 29.67 in 2.0 mi Calm Calm - 0.26 in Rain Heavy Rain
6:53 PM 55.0 °F - 55.0 °F 100% 29.67 in 1.8 mi ESE 4.6 mph - 0.29 in Rain Heavy Rain
7:07 PM 55.4 °F - 55.4 °F 100% 29.64 in 2.5 mi ESE 5.8 mph - 0.08 in Rain Heavy Rain
7:17 PM 55.4 °F - 55.4 °F 100% 29.65 in 3.0 mi SSE 4.6 mph - 0.12 in Rain Rain
7:48 PM 55.4 °F - 53.6 °F 94% 29.64 in 4.0 mi South 4.6 mph - 0.23 in Rain Rain
7:53 PM 55.0 °F - 54.0 °F 96% 29.64 in 3.0 mi South 4.6 mph - 0.24 in Rain Rain
8:42 PM 53.6 °F - 53.6 °F 100% 29.64 in 2.5 mi WSW 4.6 mph - 0.12 in Rain Rain
8:53 PM 55.0 °F - 54.0 °F 96% 29.62 in 2.5 mi Calm Calm - 0.16 in Rain Rain
9:00 PM 53.6 °F - 53.6 °F 100% 29.61 in 4.0 mi SE 3.5 mph - 0.01 in Rain Rain
9:06 PM 53.6 °F - 53.6 °F 100% 29.61 in 2.0 mi Calm Calm - 0.02 in Rain Light Rain
9:13 PM 53.6 °F - 53.6 °F 100% 29.62 in 3.0 mi Calm Calm - 0.02 in Rain Light Rain
9:23 PM 53.6 °F - 53.6 °F 100% 29.62 in 2.0 mi Calm Calm - 0.05 in Rain Rain
9:29 PM 53.6 °F - 53.6 °F 100% 29.61 in 1.0 mi Calm Calm - 0.07 in Rain Rain
9:44 PM 53.6 °F - 53.6 °F 100% 29.64 in 1.8 mi WSW 4.6 mph - 0.12 in Rain Heavy Rain
9:51 PM 55.4 °F - 53.6 °F 94% 29.64 in 2.5 mi SW 4.6 mph - 0.15 in Rain Heavy Rain
9:53 PM 55.0 °F - 54.0 °F 96% 29.63 in 3.0 mi Calm Calm - 0.15 in Rain Rain
10:53 PM 55.9 °F - 54.0 °F 93% 29.64 in 4.0 mi West 11.5 mph 23.0 mph 0.11 in Rain Rain
11:19 PM 51.8 °F - 50.0 °F 94% 29.68 in 7.0 mi West 12.7 mph 23.0 mph 0.06 in Rain Rain
11:25 PM 51.8 °F - 48.2 °F 88% 29.68 in 6.0 mi WNW 15.0 mph 25.3 mph 0.07 in Rain Rain
11:40 PM 48.2 °F - 46.4 °F 93% 29.70 in 5.0 mi West 15.0 mph 25.3 mph 0.12 in Rain Rain
11:50 PM 48.2 °F - 44.6 °F 87% 29.72 in 5.0 mi WNW 16.1 mph 25.3 mph 0.15 in Rain Rain
11:53 PM 48.0 °F - 45.0 °F 89% 29.72 in 5.0 mi WNW 11.5 mph 25.3 mph 0.16 in Rain Rain